Voltar ao catálogo

STARLINK-37409

AtivoComunicaçõesSSO
NORAD 68819·PAYLOAD·🇺🇸 United States

Lançado Apr 23, 2026 de Vandenberg Space Force Base

Loading…

Próximas Passagens (próximas 24 horas)

TLE

AtualizadoSource: CelesTrak SupGP

Época: Sep 14, 2026, 21:44 UTC

1 68819C 26089T   26257.90604167  .00076562  00000+0  23778-2 0  2573
2 68819  97.2851 103.7736 0001897  92.1885 263.9962 15.33384791    13

Acompanhe STARLINK-37409 em tempo real com AllMySat

Download on the App Store